Location: Haliburton Scout Reserve
(45.0900°N, 78.3200°W)
Time: 02:09:18
(UTC-04:00)

ESTCUBE 1 - Pass Details

Date: 19 May 2022
Orbit: 644 x 659 km, 97.9° (Epoch: 27 June)

Event Time Altitude Azimuth Distance (km) Brightness Sun altitude
Exits shadow 22:27:28 20° 106° (ESE) 1,521 ? -15.2°
Maximum altitude 22:29:28 27° 67° (ENE) 1,249 ? -15.4°
Drops below altitude 10° 22:33:16 10° 9° (N) 2,071 ? -15.8°
Sets 22:35:44 0° 358° (N) 2,984 ? -16.1°
